EN

Hourly Weather Novozemovo

Today, 12 May, Wednesday

Time Temperature Precipitation Wind Pressure Humidity
00:00 +11°C° 0 mm 3 mps 748 mmHg 92%
01:00 +11°C° 0 mm 3 mps 748 mmHg 93%
02:00 +11°C° 0 mm 3 mps 748 mmHg 94%
03:00 +10°C° 0 mm 3 mps 748 mmHg 95%
04:00 +10°C° 0 mm 3 mps 748 mmHg 96%
05:00 +10°C° 0 mm 3 mps 748 mmHg 96%
06:00 +11°C° 0 mm 4 mps 748 mmHg 89%
07:00 +12°C° 0 mm 4 mps 749 mmHg 81%
08:00 +13°C° 0 mm 5 mps 749 mmHg 73%
09:00 +14°C° 0 mm 5 mps 749 mmHg 66%
10:00 +14°C° 0 mm 5 mps 749 mmHg 59%
11:00 +15°C° 0 mm 5 mps 749 mmHg 52%
12:00 +15°C° 0 mm 5 mps 748 mmHg 51%
13:00 +16°C° 0 mm 5 mps 748 mmHg 50%
14:00 +16°C° 0 mm 5 mps 748 mmHg 49%
15:00 +17°C° 0 mm 4 mps 747 mmHg 50%
16:00 +17°C° 0 mm 3 mps 746 mmHg 51%
17:00 +17°C° 0 mm 3 mps 746 mmHg 52%
18:00 +16°C° 0 mm 2 mps 745 mmHg 57%
19:00 +15°C° 0 mm 2 mps 744 mmHg 61%
20:00 +14°C° 0 mm 1 mps 744 mmHg 66%
21:00 +13°C° 0.4 mm 2 mps 743 mmHg 73%
22:00 +12°C° 0.4 mm 2 mps 743 mmHg 80%
23:00 +10°C° 0.4 mm 2 mps 742 mmHg 87%

Tomorrow, 13 May, Thursday

Time Temperature Precipitation Wind Pressure Humidity
00:00 +10°C° 1.1 mm 3 mps 742 mmHg 90%
01:00 +9°C° 1.1 mm 3 mps 741 mmHg 93%
02:00 +8°C° 1.1 mm 4 mps 741 mmHg 95%
03:00 +8°C° 0.3 mm 4 mps 741 mmHg 95%
04:00 +8°C° 0.3 mm 3 mps 741 mmHg 94%
05:00 +8°C° 0.3 mm 3 mps 741 mmHg 94%
06:00 +9°C° 0.2 mm 3 mps 741 mmHg 91%
07:00 +9°C° 0.2 mm 3 mps 741 mmHg 89%
08:00 +10°C° 0.2 mm 4 mps 741 mmHg 86%
09:00 +8°C° 1.4 mm 4 mps 740 mmHg 88%
10:00 +8°C° 1.4 mm 4 mps 740 mmHg 89%
11:00 +7°C° 1.4 mm 5 mps 740 mmHg 91%
12:00 +8°C° 0.3 mm 5 mps 740 mmHg 86%
13:00 +10°C° 0.3 mm 5 mps 740 mmHg 81%
14:00 +12°C° 0.3 mm 5 mps 740 mmHg 75%
15:00 +12°C° 0.4 mm 5 mps 740 mmHg 77%
16:00 +12°C° 0.4 mm 5 mps 740 mmHg 78%
17:00 +12°C° 0.4 mm 5 mps 740 mmHg 80%
18:00 +11°C° 0 mm 4 mps 740 mmHg 83%
19:00 +10°C° 0 mm 4 mps 740 mmHg 86%
20:00 +9°C° 0 mm 3 mps 740 mmHg 88%
21:00 +8°C° 0 mm 4 mps 740 mmHg 89%
22:00 +8°C° 0 mm 4 mps 740 mmHg 89%
23:00 +7°C° 0 mm 4 mps 740 mmHg 90%

Day after tomorrow, 14 May, Friday

Time Temperature Precipitation Wind Pressure Humidity
00:00 +7°C° 0.2 mm 4 mps 739 mmHg 91%
01:00 +8°C° 0.2 mm 4 mps 739 mmHg 92%
02:00 +8°C° 0.2 mm 4 mps 739 mmHg 93%
03:00 +8°C° 0.1 mm 5 mps 739 mmHg 92%
04:00 +8°C° 0.1 mm 5 mps 739 mmHg 91%
05:00 +9°C° 0.1 mm 5 mps 739 mmHg 91%
06:00 +9°C° 0 mm 5 mps 739 mmHg 90%
07:00 +10°C° 0 mm 5 mps 739 mmHg 90%
08:00 +10°C° 0 mm 5 mps 739 mmHg 90%
09:00 +11°C° 0.3 mm 6 mps 739 mmHg 88%
10:00 +13°C° 0.3 mm 6 mps 739 mmHg 86%
11:00 +14°C° 0.3 mm 6 mps 739 mmHg 85%
12:00 +14°C° 0.4 mm 6 mps 739 mmHg 83%
13:00 +15°C° 0.4 mm 6 mps 738 mmHg 82%
14:00 +16°C° 0.4 mm 6 mps 738 mmHg 81%
15:00 +16°C° 0.7 mm 5 mps 738 mmHg 81%
16:00 +17°C° 0.7 mm 4 mps 738 mmHg 82%
17:00 +17°C° 0.7 mm 4 mps 737 mmHg 83%
18:00 +16°C° 0.8 mm 3 mps 737 mmHg 86%
19:00 +14°C° 0.8 mm 3 mps 737 mmHg 89%
20:00 +13°C° 0.8 mm 2 mps 737 mmHg 93%
21:00 +13°C° 0 mm 2 mps 737 mmHg 93%
22:00 +12°C° 0 mm 2 mps 737 mmHg 93%
23:00 +12°C° 0 mm 2 mps 737 mmHg 94%

15 May, Saturday

Time Temperature Precipitation Wind Pressure Humidity
00:00 +12°C° 0 mm 2 mps 737 mmHg 94%
01:00 +10°C° 0 mm 2 mps 737 mmHg 94%
02:00 +11°C° 0 mm 1 mps 737 mmHg 94%
03:00 +11°C° 0 mm 1 mps 737 mmHg 94%
04:00 +11°C° 0 mm 1 mps 737 mmHg 94%
05:00 +11°C° 0 mm 1 mps 737 mmHg 94%
06:00 +12°C° 0.1 mm 2 mps 737 mmHg 92%
07:00 +13°C° 0.1 mm 2 mps 737 mmHg 90%
08:00 +14°C° 0.1 mm 2 mps 737 mmHg 88%
09:00 +14°C° 0.1 mm 2 mps 737 mmHg 88%
10:00 +13°C° 0.1 mm 3 mps 738 mmHg 87%
11:00 +13°C° 0.1 mm 3 mps 738 mmHg 87%
12:00 +13°C° 0.1 mm 3 mps 738 mmHg 85%
13:00 +13°C° 0.1 mm 3 mps 738 mmHg 84%
14:00 +13°C° 0.1 mm 3 mps 738 mmHg 82%
15:00 +14°C° 0.1 mm 4 mps 738 mmHg 80%
16:00 +14°C° 0.1 mm 4 mps 738 mmHg 78%
17:00 +14°C° 0.1 mm 4 mps 738 mmHg 76%
18:00 +13°C° 0 mm 4 mps 738 mmHg 82%
19:00 +12°C° 0 mm 3 mps 738 mmHg 87%
20:00 +10°C° 0 mm 3 mps 739 mmHg 93%
21:00 +10°C° 0 mm 3 mps 739 mmHg 93%
22:00 +10°C° 0 mm 3 mps 739 mmHg 94%
23:00 +10°C° 0 mm 3 mps 740 mmHg 94%

16 May, Sunday

Time Temperature Precipitation Wind Pressure Humidity
00:00 +9°C° 0 mm 3 mps 740 mmHg 95%
01:00 +9°C° 0 mm 3 mps 740 mmHg 96%
02:00 +9°C° 0 mm 2 mps 740 mmHg 97%
03:00 +10°C° 0 mm 3 mps 740 mmHg 97%
04:00 +10°C° 0 mm 3 mps 741 mmHg 96%
05:00 +11°C° 0 mm 3 mps 741 mmHg 96%
06:00 +11°C° 0 mm 3 mps 741 mmHg 92%
07:00 +12°C° 0 mm 3 mps 742 mmHg 88%
08:00 +13°C° 0 mm 3 mps 742 mmHg 84%
09:00 +14°C° 0.1 mm 3 mps 742 mmHg 78%
10:00 +17°C° 0.1 mm 2 mps 743 mmHg 72%
11:00 +18°C° 0.1 mm 2 mps 743 mmHg 66%
12:00 +19°C° 0.1 mm 2 mps 743 mmHg 62%
13:00 +19°C° 0.1 mm 2 mps 743 mmHg 58%
14:00 +20°C° 0.1 mm 2 mps 743 mmHg 53%
15:00 +20°C° 0 mm 2 mps 743 mmHg 54%
16:00 +21°C° 0 mm 1 mps 743 mmHg 55%
17:00 +21°C° 0 mm 1 mps 743 mmHg 56%
18:00 +19°C° 0 mm 1 mps 743 mmHg 62%
19:00 +17°C° 0 mm 2 mps 743 mmHg 68%
20:00 +15°C° 0 mm 2 mps 743 mmHg 74%
21:00 +15°C° 0 mm 2 mps 743 mmHg 78%
22:00 +14°C° 0 mm 2 mps 743 mmHg 82%
23:00 +12°C° 0 mm 3 mps 743 mmHg 86%

17 May, Monday

Time Temperature Precipitation Wind Pressure Humidity
00:00 +12°C° 0 mm 3 mps 743 mmHg 87%
01:00 +11°C° 0 mm 3 mps 743 mmHg 89%
02:00 +11°C° 0 mm 3 mps 743 mmHg 90%
03:00 +11°C° 0 mm 3 mps 743 mmHg 89%
04:00 +11°C° 0 mm 3 mps 743 mmHg 89%
05:00 +11°C° 0 mm 3 mps 743 mmHg 89%
06:00 +13°C° 0 mm 4 mps 743 mmHg 85%
07:00 +14°C° 0 mm 4 mps 743 mmHg 81%
08:00 +16°C° 0 mm 5 mps 743 mmHg 76%
09:00 +17°C° 0 mm 5 mps 743 mmHg 73%
10:00 +19°C° 0 mm 5 mps 742 mmHg 70%
11:00 +20°C° 0 mm 5 mps 742 mmHg 66%
12:00 +19°C° 0.1 mm 4 mps 742 mmHg 72%
13:00 +18°C° 0.1 mm 4 mps 742 mmHg 78%
14:00 +18°C° 0.1 mm 4 mps 742 mmHg 83%
15:00 +18°C° 0.1 mm 4 mps 741 mmHg 83%
16:00 +18°C° 0.1 mm 4 mps 741 mmHg 83%
17:00 +19°C° 0.1 mm 4 mps 741 mmHg 83%
18:00 +18°C° 1.2 mm 3 mps 740 mmHg 87%
19:00 +17°C° 1.2 mm 3 mps 739 mmHg 91%
20:00 +17°C° 1.2 mm 3 mps 739 mmHg 95%
21:00 +16°C° 1 mm 2 mps 738 mmHg 96%
22:00 +16°C° 1 mm 2 mps 738 mmHg 96%
23:00 +16°C° 1 mm 2 mps 738 mmHg 96%
Show more

We Need Your Consent

Meteoprog and our Service Providers may store and access personal data such as cookies, device identifiers or other similar technologies on your device and process such data to personalise content and ads, as well as provide social media features and to analyse the traffic.

  • Store and/or access information on your device

    Cookies, device identifiers or other information can be stored or accessed on your device for the purposes indicated above.

  • Personalised ads and content, ad and content measurement, audience insights, and products development

    Ads and content can be personalised based on a profile. More data can be added to better personalise ads and content. Ad and content performance can be measured. Insights about the audience who saw the ads and content can be derived. Such data can be used to develop or improve user’s experience, systems and software.

By clicking ‘I Agree’ you will allow the use of indicated cookies, device identifiers, web beacons or other similar technologies. Your settings can be changed in the browser on your device.

For certain purposes, legitimate interests may be relied on, rather than consent. You can read more about this in our Privacy and Cookie Policy.